Location: Holcomb Observatory
(44.4922°N, 73.1654°W)
Time: 03:35:17
(UTC-05:00)

Cosmos 2360 Rocket - Visible Passes

Search period start: 23 November 2014 00:00
Search period end: 03 December 2014 00:00
Orbit: 834 x 846 km, 71.0° (Epoch: 22 November)

Date Brightness Start Highest point End Pass type
(mag) Time Alt. Az. Time Alt. Az. Time Alt. Az.
23 Nov 4.2 18:34:41 10° N 18:35:52 14° N 18:35:52 14° N visible
24 Nov 4.0 18:19:10 10° N 18:20:51 15° NNE 18:20:51 15° NNE visible
24 Nov 4.7 20:02:09 10° NNW 20:02:38 13° NNW 20:02:38 13° NNW visible
25 Nov 3.9 18:03:39 10° N 18:05:54 16° NNE 18:05:54 16° NNE visible
25 Nov 4.4 19:46:33 10° NNW 19:47:42 17° NNW 19:47:42 17° NNW visible
26 Nov 3.8 17:48:08 10° N 17:51:03 17° NE 17:51:03 17° NE visible
26 Nov 4.0 19:30:57 10° NNW 19:32:51 22° NNW 19:32:51 22° NNW visible
27 Nov 3.7 17:32:38 10° N 17:36:05 16° NE 17:36:17 16° NE visible
27 Nov 3.5 19:15:22 10° NNW 19:18:06 30° NNW 19:18:06 30° NNW visible
28 Nov 3.7 17:17:09 10° N 17:20:25 15° NE 17:21:41 14° ENE visible
28 Nov 2.9 18:59:46 10° NNW 19:03:30 43° NNW 19:03:30 43° NNW visible
29 Nov 3.8 17:01:40 10° N 17:04:45 15° NE 17:07:16 11° ENE visible
29 Nov 2.2 18:44:11 10° NNW 18:49:06 64° NNE 18:49:06 64° NNE visible
29 Nov 4.9 20:29:39 10° WNW 20:30:57 14° WNW 20:30:57 14° WNW visible
30 Nov 3.8 16:46:12 10° N 16:49:06 14° NE 16:51:58 10° ENE visible
30 Nov 2.0 18:28:35 10° NNW 18:34:14 68° ENE 18:35:02 60° ESE visible
30 Nov 4.6 20:13:54 10° WNW 20:16:54 18° W 20:16:54 18° W visible
01 Dec 2.1 18:13:00 10° NNW 18:18:37 64° ENE 18:21:32 29° SE visible
01 Dec 4.5 19:58:10 10° NW 20:02:04 20° W 20:03:28 18° WSW visible
02 Dec 2.1 17:57:25 10° NNW 18:03:01 61° ENE 18:08:33 10° SE visible
02 Dec 4.4 19:42:26 10° NW 19:46:30 21° W 19:50:33 10° SSW visible
